Regional Weather Roundup
Issued by NWS Newport/Morehead, NC

Current Version | Previous Version | Graphics & Text | Print | Product List | Glossary Off
Versions: 1 2 3 4 5 6 7 8 9 10 11 12 13 14 15 16 17 18 19 20 21 22 23 24 25 26 27 28 29 30 31 32 33 34 35 36 37 38 39 40 41 42 43 44 45 46 47 48

000
ASUS42 KMHX 212125
RWRMHX
WEATHER ROUNDUP FOR EASTERN NORTH CAROLINA
NATIONAL WEATHER SERVICE NEWPORT/MOREHEAD CITY NC
500 PM EDT SAT APR 21 2018

NOTE: "FAIR" INDICATES FEW OR NO CLOUDS BELOW 12,000 FEET
WITH NO SIGNIFICANT WEATHER AND/OR OBSTRUCTIONS TO VISIBILITY

NCZ015>017-031-032-045>047-102-103-212200-
NORTH COAST

CITY           SKY/WX    TMP DP  RH WIND       PRES   REMARKS
EDENTON        FAIR      62  46  55 E10       30.37S
ELIZABETH CITY FAIR      58  43  57 E10       30.39S
KITTY HAWK     FAIR      51  39  64 NE6       30.39S
MANTEO         FAIR      52  38  59 E14       30.40R

$$

NCZ045>047-081-094-103-104-212200-
CENTRAL COAST

CITY           SKY/WX    TMP DP  RH WIND       PRES   REMARKS
FRISCO         FAIR      59  38  45 VRB7      30.38F

$$

NCZ095-097-098-100-101-212200-
SOUTHERN COAST

CITY           SKY/WX    TMP DP  RH WIND       PRES   REMARKS
BEAUFORT       FAIR      61  37  41 E13       30.36F
CEDAR ISLAND   NOT AVBL
JACKSONVILLE   FAIR      64  40  41 SE13      30.34F
PINEY ISLAND   NOT AVBL
WILMINGTON     FAIR      66  32  28 SE9       30.34F


$$

NCZ011>013-027>030-043-044-078>080-089-090>093-098-212200-
COASTAL PLAIN

CITY           SKY/WX    TMP DP  RH WIND       PRES   REMARKS
AHOSKIE        FAIR      64  31  29 CALM      30.35S
CLINTON        FAIR      69  39  33 NE3       30.33F
ELIZABETHTOWN  FAIR      70  31  24 MISG      30.32F
GOLDSBORO      FAIR      67  35  30 CALM      30.32F
GREENVILLE     FAIR      66  32  28 E3        30.34S
HAVELOCK       SUNNY     66  39  37 E9        30.36F
KENANSVILLE    FAIR      68  34  28 CALM      30.33F
KINSTON        FAIR      68  32  26 N6        30.35F
NEW BERN       FAIR      66  40  38 CALM      30.35F
RICHLANDS      FAIR      66  38  35 SE10      30.34S
ROCKY MOUNT    FAIR      66  32  28 NW6       30.34F
WASHINGTON     FAIR      67  32  27 CALM      30.34S
WHITEVILLE     FAIR      70  33  25 NE6       30.31F

$$

AMZ130-135-150-152-154-156-158-170-250-252-270-ANZ085-086-088-633-658-670-212200-
MARINE OBSERVATIONS

STATION/POSITION TIME  TEMP    WIND        PRES    WAVE   SWELL
                       AIR SEA DIR/SP/G            HT/PER HT/PER
                 (UTC) (F)     (DEG/KT/KT) (MB)    (FT/S) (FT/S)
CHESAPEAKE LIGHT NOT AVBL
64 E VA BEACH    2050   46 49   30/ 10/ 12 1030.1    2/ 5   2/ 5
DUCK             2100   49 53   60/  9/ 11 1029.1
2 E DUCK         2100      53                N/A     2/ 5
OREGON INLET     2100   50 56   30/ 12/ 16 1028.8
13E OREGON INLT  2048      51                N/A     3/ 5   2/ 7
HATTERAS CG      2100   55 61   60/  9/ 12 1028.5
DIAMOND BUOY     2110   56 72   30/ 10/ 14 1029.2
CAPE LOOKOUT     2100           90/ 12/ 13 1028.8
BEAUFORT LAB     2100   59 62  130/ 14/ 17 1028.2
30 SE NEW RVR IN 2108   60 66   90/ 10/ 14 1028.3
30 SE NEW RVR IN 2100      66                N/A     4/ 7
27 SE WRIGHTSVLE 2108   62 66   80/ 14/ 19 1027.9
5 SE WRIGHTSVLE  2108   61 61  100/ 10/ 14 1027.6
225 S CAPE HAT   2110   64 73   50/ 14/ 19 1025.6
41 SE CHARLESTON 2110   66 67   80/ 16/ 17 1026.2

$$




USA.gov is the U.S. government's official web portal to all federal, state and local government web resources and services.